Location: Acts Church of Fort Worth
(32.6786°N, 97.2668°W)
Time: 20:53:22
(UTC+00:00)

Meteor 2-15 Rocket - Pass Details

Date: 18 January 2026
Orbit: 939 x 956 km, 82.5° (Epoch: 10 February)

Event Time Altitude Azimuth Distance (km) Brightness Sun altitude
Rises 00:54:33 0° 353° (N) 3,631 7.4 -14.0°
Reaches altitude 10° 00:57:03 10° 354° (N) 2,680 6.7 -14.5°
Maximum altitude 01:03:12 87° 85° (E) 953 4.4 -15.8°
Drops below altitude 10° 01:09:17 10° 174° (S) 2,654 6.9 -17.0°
Sets 01:11:45 0° 174° (S) 3,593 7.6 -17.5°
